TimePDT,TemperatureF,Dew PointF,Humidity,Sea Level PressureIn,VisibilityMPH,Wind Direction,Wind SpeedMPH,Gust SpeedMPH,PrecipitationIn,Events,Conditions,WindDirDegrees,DateUTC
12:15 AM,57.2,57.2,100,30.03,10.0,ESE,3.5,-,N/A,,Mostly Cloudy,120,2013-08-11 07:15:00
12:35 AM,57.2,57.2,100,30.03,10.0,Calm,Calm,-,N/A,,Scattered Clouds,0,2013-08-11 07:35:00
12:55 AM,55.4,55.4,100,30.03,10.0,Calm,Calm,-,N/A,,Clear,0,2013-08-11 07:55:00
1:15 AM,55.4,55.4,100,30.03,10.0,Calm,Calm,-,N/A,,Partly Cloudy,0,2013-08-11 08:15:00
1:35 AM,55.4,55.4,100,30.02,10.0,Calm,Calm,-,N/A,,Clear,0,2013-08-11 08:35:00
1:55 AM,53.6,53.6,100,30.02,10.0,Calm,Calm,-,N/A,,Partly Cloudy,0,2013-08-11 08:55:00
2:15 AM,53.6,53.6,100,30.02,10.0,Calm,Calm,-,N/A,,Mostly Cloudy,0,2013-08-11 09:15:00
2:35 AM,53.6,53.6,100,30.02,10.0,Calm,Calm,-,N/A,,Overcast,0,2013-08-11 09:35:00
2:55 AM,55.4,55.4,100,30.02,10.0,Calm,Calm,-,N/A,,Mostly Cloudy,0,2013-08-11 09:55:00
3:15 AM,55.4,55.4,100,30.02,10.0,Calm,Calm,-,N/A,,Overcast,0,2013-08-11 10:15:00
3:35 AM,55.4,55.4,100,30.02,10.0,Calm,Calm,-,N/A,,Overcast,0,2013-08-11 10:35:00
3:55 AM,57.2,57.2,100,30.01,10.0,NE,4.6,-,N/A,,Overcast,50,2013-08-11 10:55:00
4:15 AM,55.4,55.4,100,30.02,10.0,NNE,3.5,-,N/A,,Overcast,30,2013-08-11 11:15:00
4:35 AM,55.4,55.4,100,30.02,10.0,Calm,Calm,-,N/A,,Overcast,0,2013-08-11 11:35:00
4:55 AM,57.2,57.2,100,30.02,10.0,Calm,Calm,-,N/A,,Overcast,0,2013-08-11 11:55:00
5:15 AM,55.4,55.4,100,30.02,10.0,SSW,3.5,-,N/A,,Overcast,210,2013-08-11 12:15:00
5:35 AM,55.4,55.4,100,30.02,10.0,Calm,Calm,-,N/A,,Overcast,0,2013-08-11 12:35:00
5:55 AM,55.4,55.4,100,30.02,10.0,Calm,Calm,-,N/A,,Overcast,0,2013-08-11 12:55:00
6:15 AM,55.4,55.4,100,30.03,10.0,NE,3.5,-,N/A,,Overcast,50,2013-08-11 13:15:00
6:35 AM,55.4,55.4,100,30.03,10.0,Calm,Calm,-,N/A,,Overcast,0,2013-08-11 13:35:00
6:55 AM,55.4,55.4,100,30.03,10.0,Calm,Calm,-,N/A,,Overcast,0,2013-08-11 13:55:00
7:15 AM,55.4,55.4,100,30.03,10.0,NNE,3.5,-,N/A,,Overcast,20,2013-08-11 14:15:00
7:35 AM,55.4,55.4,100,30.03,10.0,Calm,Calm,-,N/A,,Overcast,0,2013-08-11 14:35:00
7:55 AM,55.4,55.4,100,30.04,10.0,South,4.6,-,N/A,,Overcast,180,2013-08-11 14:55:00
8:15 AM,55.4,55.4,100,30.04,10.0,ENE,3.5,-,N/A,,Overcast,70,2013-08-11 15:15:00
8:35 AM,57.2,55.4,94,30.04,10.0,Calm,Calm,-,N/A,,Overcast,0,2013-08-11 15:35:00
8:55 AM,57.2,55.4,94,30.04,10.0,Calm,Calm,-,N/A,,Overcast,0,2013-08-11 15:55:00
9:15 AM,59.0,55.4,88,30.04,10.0,North,3.5,-,N/A,,Overcast,350,2013-08-11 16:15:00
9:35 AM,59.0,55.4,88,30.04,10.0,Calm,Calm,-,N/A,,Unknown,0,2013-08-11 16:35:00
9:55 AM,60.8,55.4,82,30.04,10.0,Calm,Calm,-,N/A,,Unknown,0,2013-08-11 16:55:00
10:15 AM,62.6,55.4,77,30.03,10.0,Calm,Calm,-,N/A,,Unknown,0,2013-08-11 17:15:00
10:35 AM,64.4,55.4,73,30.03,10.0,Calm,Calm,-,N/A,,Unknown,0,2013-08-11 17:35:00
10:55 AM,64.4,53.6,68,30.03,-9999.0,Calm,Calm,-,N/A,,Unknown,0,2013-08-11 17:55:00
11:15 AM,68.0,53.6,60,30.02,-9999.0,SSW,4.6,-,N/A,,Unknown,210,2013-08-11 18:15:00
11:35 AM,68.0,55.4,64,30.02,-9999.0,Calm,Calm,-,N/A,,Unknown,0,2013-08-11 18:35:00
11:55 AM,71.6,55.4,57,30.01,-9999.0,Calm,Calm,-,N/A,,Unknown,0,2013-08-11 18:55:00
12:15 PM,71.6,57.2,60,30.00,-9999.0,SSE,6.9,-,N/A,,Unknown,150,2013-08-11 19:15:00
12:35 PM,73.4,55.4,53,29.99,-9999.0,SSW,8.1,-,N/A,,Unknown,200,2013-08-11 19:35:00
12:55 PM,73.4,57.2,57,29.99,-9999.0,SE,5.8,-,N/A,,Unknown,140,2013-08-11 19:55:00
1:15 PM,75.2,57.2,53,29.99,-9999.0,SE,6.9,-,N/A,,Unknown,130,2013-08-11 20:15:00
1:35 PM,75.2,59.0,57,29.99,-9999.0,SE,5.8,-,N/A,,Clear,130,2013-08-11 20:35:00
1:55 PM,77.0,57.2,50,29.98,-9999.0,SE,8.1,-,N/A,,Clear,140,2013-08-11 20:55:00
2:15 PM,77.0,57.2,50,29.98,-9999.0,ESE,5.8,-,N/A,,Clear,110,2013-08-11 21:15:00
2:35 PM,78.8,57.2,47,29.98,-9999.0,SE,5.8,-,N/A,,Clear,140,2013-08-11 21:35:00
2:55 PM,80.6,55.4,42,29.97,-9999.0,North,6.9,-,N/A,,Clear,350,2013-08-11 21:55:00
3:15 PM,82.4,53.6,37,29.96,-9999.0,NNW,9.2,-,N/A,,Clear,340,2013-08-11 22:15:00
3:35 PM,82.4,53.6,37,29.96,-9999.0,WNW,6.9,-,N/A,,Clear,300,2013-08-11 22:35:00
3:55 PM,80.6,53.6,39,29.96,-9999.0,North,10.4,-,N/A,,Clear,360,2013-08-11 22:55:00
4:15 PM,80.6,50.0,34,29.95,-9999.0,NNW,11.5,-,N/A,,Clear,340,2013-08-11 23:15:00
4:35 PM,80.6,50.0,34,29.95,-9999.0,NNW,12.7,17.3,N/A,,Clear,340,2013-08-11 23:35:00
4:55 PM,77.0,53.6,44,29.95,-9999.0,NNW,15.0,-,N/A,,Clear,340,2013-08-11 23:55:00
5:15 PM,77.0,53.6,44,29.94,-9999.0,North,12.7,-,N/A,,Clear,350,2013-08-12 00:15:00
5:35 PM,75.2,53.6,47,29.94,-9999.0,NNW,12.7,-,N/A,,Clear,340,2013-08-12 00:35:00
5:55 PM,75.2,53.6,47,29.94,-9999.0,North,12.7,-,N/A,,Clear,360,2013-08-12 00:55:00
6:15 PM,73.4,53.6,50,29.94,-9999.0,North,4.6,-,N/A,,Clear,360,2013-08-12 01:15:00
6:35 PM,73.4,53.6,50,29.94,-9999.0,NNE,6.9,-,N/A,,Clear,20,2013-08-12 01:35:00
6:55 PM,71.6,53.6,53,29.94,-9999.0,East,3.5,-,N/A,,Clear,90,2013-08-12 01:55:00
7:15 PM,68.0,53.6,60,29.94,-9999.0,NNW,5.8,-,N/A,,Clear,340,2013-08-12 02:15:00
7:35 PM,66.2,53.6,64,29.94,-9999.0,ESE,5.8,-,N/A,,Clear,120,2013-08-12 02:35:00
7:55 PM,64.4,53.6,68,29.95,-9999.0,SSE,6.9,-,N/A,,Clear,160,2013-08-12 02:55:00
8:15 PM,62.6,53.6,72,29.95,10.0,East,3.5,-,N/A,,Unknown,90,2013-08-12 03:15:00
8:35 PM,59.0,53.6,82,29.95,10.0,NNE,5.8,-,N/A,,Unknown,30,2013-08-12 03:35:00
8:55 PM,59.0,53.6,82,29.96,10.0,East,3.5,-,N/A,,Unknown,100,2013-08-12 03:55:00